| time (UTC) | temp F | wind direction | speed knots | gust knots | rain 1hr in | rain 24hr in | rain mn in | humidity % | barometer mb |
| 20260906124332 | 72 | 0 | 0.0 | 0.0 | 0.00 | 0.30 | 0.00 | 95 | 990.3 |
| 20260906122825 | 72 | 0 | 0.0 | 0.0 | 0.00 | 0.30 | 0.00 | 95 | 990.0 |
| 20260906121325 | 72 | 0 | 0.0 | 0.0 | 0.00 | 0.30 | 0.00 | 95 | 990.1 |
| 20260906115824 | 72 | 0 | 0.0 | 0.0 | 0.00 | 0.30 | 0.00 | 95 | 989.9 |
| 20260906114322 | 71 | 0 | 0.0 | 0.0 | 0.00 | 0.30 | 0.00 | 95 | 989.9 |
| 20260906112819 | 71 | 0 | 0.0 | 0.0 | 0.00 | 0.30 | 0.00 | 95 | 989.9 |
| 20260906111317 | 71 | 0 | 0.0 | 0.0 | 0.00 | 0.30 | 0.00 | 95 | 989.8 |
| 20260906105816 | 71 | 0 | 0.0 | 0.0 | 0.00 | 0.30 | 0.00 | 95 | 989.5 |
| 20260906104315 | 71 | 0 | 0.0 | 0.0 | 0.00 | 0.30 | 0.00 | 95 | 989.3 |
| 20260906102813 | 71 | 0 | 0.0 | 0.0 | 0.00 | 0.30 | 0.00 | 95 | 989.2 |
| 20260906101311 | 71 | 0 | 0.0 | 0.0 | 0.00 | 0.30 | 0.00 | 95 | 989.2 |
| 20260906095809 | 71 | 0 | 0.0 | 0.0 | 0.00 | 0.30 | 0.00 | 95 | 988.9 |
| 20260906095002 | 71 | 0 | 0.0 | 0.0 | 0.00 | 0.30 | 0.00 | 95 | 988.7 |
| 20260906092809 | 71 | 0 | 0.0 | 0.0 | 0.00 | 0.30 | 0.00 | 95 | 988.5 |
| 20260906091309 | 71 | 0 | 0.0 | 0.0 | 0.00 | 0.30 | 0.00 | 95 | 988.2 |
| 20260906085807 | 71 | 0 | 0.0 | 0.0 | 0.00 | 0.30 | 0.00 | 95 | 988.0 |
| 20260906084303 | 71 | 0 | 0.0 | 0.0 | 0.00 | 0.30 | 0.00 | 95 | 988.1 |
| 20260906084209 | 72 | 0 | 0.0 | 0.0 | 0.00 | 0.30 | 0.00 | 95 | 988.1 |
| 20260906081303 | 72 | 0 | 0.0 | 0.0 | 0.00 | 0.30 | 0.00 | 95 | 988.2 |
| 20260906080509 | 72 | 0 | 0.0 | 0.0 | 0.00 | 0.30 | 0.00 | 95 | 988.1 |
| 20260906074301 | 72 | 0 | 0.0 | 0.0 | 0.00 | 0.30 | 0.00 | 95 | 987.8 |
| 20260906072801 | 72 | 0 | 0.0 | 0.0 | 0.00 | 0.30 | 0.00 | 95 | 987.9 |
| 20260906072005 | 72 | 0 | 0.0 | 0.0 | 0.00 | 0.30 | 0.00 | 95 | 987.8 |
| 20260906065804 | 72 | 0 | 0.0 | 0.0 | 0.00 | 0.30 | 0.00 | 95 | 987.9 |
| 20260906064305 | 73 | 0 | 0.0 | 0.0 | 0.00 | 0.30 | 0.00 | 95 | 988.0 |
| 20260906062756 | 73 | 0 | 0.0 | 0.0 | 0.00 | 0.30 | 0.00 | 95 | 988.0 |
| 20260906061254 | 73 | 0 | 0.0 | 0.0 | 0.00 | 0.30 | 0.00 | 95 | 988.0 |
| 20260906055753 | 73 | 0 | 0.0 | 0.0 | 0.00 | 0.30 | 0.00 | 95 | 988.0 |
| 20260906054253 | 73 | 0 | 0.0 | 0.0 | 0.00 | 0.30 | 0.00 | 95 | 988.2 |
| 20260906053443 | 73 | 0 | 0.0 | 0.0 | 0.00 | 0.30 | 0.00 | 95 | 988.4 |
| 20260906051250 | 74 | 0 | 0.0 | 0.0 | 0.00 | 0.30 | 0.00 | 95 | 988.6 |
| 20260906045751 | 74 | 0 | 0.0 | 0.0 | 0.00 | 0.30 | 0.00 | 95 | 988.4 |
| 20260906044250 | 74 | 0 | 0.0 | 0.0 | 0.00 | 0.30 | 0.00 | 95 | 988.5 |
| 20260906042749 | 74 | 0 | 0.0 | 0.0 | 0.00 | 0.30 | 0.00 | 95 | 988.6 |
| 20260906041250 | 74 | 0 | 0.0 | 0.0 | 0.00 | 0.30 | 0.00 | 95 | 988.6 |
| 20260906035746 | 74 | 0 | 0.0 | 0.0 | 0.00 | 0.30 | 0.30 | 95 | 988.7 |
| 20260906034245 | 75 | 0 | 0.0 | 0.0 | 0.00 | 0.30 | 0.30 | 95 | 988.6 |
| 20260906033436 | 75 | 0 | 0.0 | 0.0 | 0.00 | 0.30 | 0.30 | 95 | 988.7 |
| 20260906031949 | 75 | 0 | 0.0 | 0.0 | 0.00 | 0.30 | 0.30 | 95 | 988.7 |
| 20260906030441 | 75 | 0 | 0.0 | 0.0 | 0.00 | 0.30 | 0.30 | 95 | 988.9 |
| 20260906024239 | 76 | 0 | 0.0 | 0.0 | 0.00 | 0.30 | 0.30 | 95 | 988.9 |
| 20260906022739 | 76 | 0 | 0.0 | 0.0 | 0.00 | 0.30 | 0.30 | 95 | 988.7 |
| 20260906021236 | 76 | 0 | 0.0 | 0.0 | 0.00 | 0.30 | 0.30 | 95 | 988.5 |
| 20260906015734 | 76 | 0 | 0.0 | 0.0 | 0.00 | 0.30 | 0.30 | 95 | 988.4 |
| 20260906014232 | 76 | 0 | 0.0 | 0.0 | 0.00 | 0.30 | 0.30 | 95 | 988.6 |
| 20260906013415 | 76 | 0 | 0.0 | 0.0 | 0.00 | 0.30 | 0.30 | 95 | 988.5 |
| 20260906011926 | 76 | 0 | 0.0 | 0.0 | 0.00 | 0.30 | 0.30 | 95 | 988.5 |
| 20260906005723 | 76 | 0 | 0.0 | 0.0 | 0.00 | 0.30 | 0.30 | 95 | 988.4 |
| 20260906004220 | 76 | 0 | 0.0 | 0.0 | 0.00 | 0.30 | 0.30 | 95 | 988.1 |
| 20260906002719 | 77 | 0 | 0.0 | 0.0 | 0.00 | 0.30 | 0.30 | 95 | 987.9 |
| 20260906001914 | 77 | 0 | 0.0 | 0.0 | 0.00 | 0.30 | 0.30 | 95 | 987.6 |
| 20260905235717 | 77 | 0 | 0.0 | 0.0 | 0.00 | 0.30 | 0.30 | 95 | 987.4 |
| 20260905234928 | 78 | 0 | 0.0 | 0.0 | 0.00 | 0.30 | 0.30 | 95 | 987.3 |
| 20260905233417 | 78 | 0 | 0.0 | 0.0 | 0.00 | 0.30 | 0.30 | 95 | 987.1 |
| 20260905231215 | 78 | 0 | 0.0 | 0.0 | 0.00 | 0.30 | 0.30 | 95 | 987.0 |
| 20260905225713 | 78 | 0 | 0.0 | 0.0 | 0.00 | 0.30 | 0.30 | 95 | 986.7 |
| 20260905224213 | 77 | 0 | 0.0 | 0.0 | 0.00 | 0.30 | 0.30 | 95 | 986.7 |
| 20260905222711 | 77 | 0 | 0.0 | 0.0 | 0.00 | 0.30 | 0.30 | 95 | 986.9 |
| 20260905221211 | 77 | 0 | 0.0 | 0.0 | 0.00 | 0.30 | 0.30 | 95 | 986.9 |
| 20260905215711 | 77 | 0 | 0.0 | 0.0 | 0.00 | 0.30 | 0.30 | 95 | 986.8 |
| 20260905214211 | 77 | 0 | 0.0 | 0.0 | 0.00 | 0.30 | 0.30 | 95 | 986.8 |
| 20260905212711 | 76 | 0 | 0.0 | 0.0 | 0.00 | 0.30 | 0.30 | 95 | 986.4 |
| 20260905212548 | 76 | 0 | 0.0 | 0.0 | 0.00 | 0.30 | 0.30 | 95 | 986.4 |
| 20260905205711 | 76 | 0 | 0.0 | 0.0 | 0.00 | 0.30 | 0.30 | 95 | 986.5 |
| 20260905204211 | 76 | 0 | 0.0 | 0.0 | 0.00 | 0.30 | 0.30 | 95 | 986.6 |
| 20260905202709 | 76 | 0 | 0.0 | 0.0 | 0.00 | 0.30 | 0.30 | 95 | 986.3 |
| 20260905201207 | 76 | 0 | 0.0 | 0.0 | 0.01 | 0.30 | 0.30 | 95 | 986.4 |
| 20260905200404 | 75 | 0 | 0.0 | 0.0 | 0.01 | 0.30 | 0.30 | 95 | 987.4 |
| 20260905194207 | 77 | 0 | 0.0 | 0.0 | 0.30 | 0.30 | 0.30 | 95 | 987.2 |
| 20260905192705 | 77 | 0 | 0.0 | 0.0 | 0.30 | 0.30 | 0.30 | 94 | 987.8 |
| 20260905191204 | 78 | 0 | 0.0 | 0.0 | 0.29 | 0.29 | 0.29 | 93 | 987.2 |
| 20260905185705 | 82 | 0 | 0.0 | 0.0 | 0.29 | 0.29 | 0.29 | 80 | 987.5 |
| 20260905184205 | 93 | 0 | 0.0 | 0.0 | 0.00 | 0.00 | 0.00 | 57 | 987.5 |
| 20260905182704 | 97 | 0 | 0.0 | 0.0 | 0.00 | 0.00 | 0.00 | 54 | 986.8 |
| 20260905181203 | 98 | 0 | 0.0 | 0.0 | 0.00 | 0.00 | 0.00 | 52 | 986.4 |
| 20260905175702 | 98 | 0 | 0.0 | 0.0 | 0.00 | 0.00 | 0.00 | 52 | 986.8 |
| 20260905174159 | 99 | 0 | 0.0 | 0.0 | 0.00 | 0.00 | 0.00 | 55 | 987.1 |
| 20260905172658 | 98 | 0 | 0.0 | 0.0 | 0.00 | 0.00 | 0.00 | 51 | 987.8 |
| 20260905171857 | 99 | 0 | 0.0 | 0.0 | 0.00 | 0.00 | 0.00 | 53 | 988.0 |
| 20260905165656 | 97 | 0 | 0.0 | 0.0 | 0.00 | 0.00 | 0.00 | 56 | 988.2 |
| 20260905164155 | 97 | 0 | 0.0 | 0.0 | 0.00 | 0.00 | 0.00 | 54 | 988.4 |
| 20260905162655 | 96 | 0 | 0.0 | 0.0 | 0.00 | 0.00 | 0.00 | 56 | 988.6 |
| 20260905161152 | 95 | 0 | 0.0 | 0.0 | 0.00 | 0.00 | 0.00 | 60 | 988.9 |
| 20260905161033 | 95 | 0 | 0.0 | 0.0 | 0.00 | 0.00 | 0.00 | 58 | 989.0 |
| 20260905154142 | 94 | 0 | 0.0 | 0.0 | 0.00 | 0.00 | 0.00 | 60 | 989.1 |
| 20260905153337 | 92 | 0 | 0.0 | 0.0 | 0.00 | 0.00 | 0.00 | 64 | 989.3 |
| 20260905151138 | 91 | 0 | 0.0 | 0.0 | 0.00 | 0.00 | 0.00 | 66 | 989.4 |
| 20260905145638 | 90 | 0 | 0.0 | 0.0 | 0.00 | 0.00 | 0.00 | 70 | 989.4 |
| 20260905144138 | 88 | 0 | 0.0 | 0.0 | 0.00 | 0.00 | 0.00 | 73 | 989.4 |
| 20260905142636 | 87 | 0 | 0.0 | 0.0 | 0.00 | 0.00 | 0.00 | 75 | 989.4 |
| 20260905141134 | 85 | 0 | 0.0 | 0.0 | 0.00 | 0.00 | 0.00 | 78 | 989.3 |
| 20260905135634 | 82 | 0 | 0.0 | 0.0 | 0.00 | 0.00 | 0.00 | 83 | 989.2 |
| 20260905134846 | 80 | 0 | 0.0 | 0.0 | 0.00 | 0.00 | 0.00 | 89 | 989.1 |
| 20260905132631 | 78 | 0 | 0.0 | 0.0 | 0.00 | 0.00 | 0.00 | 92 | 989.1 |
| 20260905131132 | 76 | 0 | 0.0 | 0.0 | 0.00 | 0.00 | 0.00 | 93 | 989.1 |